sat.trackr.live / text

‹ back to catalog

JB-3 3 (ZY 2C)

NORAD 28470 · 2004-044A

PAYLOAD ACTIVE UNKNOWN

§ Identity

Operator
Country
PRC
Launch date
2004-11-06
Launch site
TAISC
Launch vehicle
Mass (kg)
RCS (m²)
4.42

External: N2YO · Heavens-Above · Gunter

§ Orbital elements

Epoch: 2026-09-19T21:12:10.664064Z

Period
94.74 min
Inclination
97.2893°
Eccentricity
0.0031369
Mean motion
15.19901837 rev/d
Perigee alt
484.5 km
Apogee alt
527.7 km
Semi-major
6,884.3 km
B*
1.2394e-4
RAAN
53.1354°
Arg perigee
247.9508°
Mean anomaly
111.8395°
Rev number
20,216

§ Raw data

JB-3 3 (ZY 2C)1 28470U 04044A   26262.88345676  .00002627  00000+0  12394-3 0  99962 28470  97.2893  53.1354 0031369 247.9508 111.8395 15.19901837202162

JSON: /api/v1/satellites/28470 · /tle

For live sub-satellite position, see the globe view (requires WebGL).

§ Visibility from observer

Set your observer location to see the next 7 days of passes ≥ 10°. The values pass through the URL so the page stays shareable.

No JS? Fill the form by hand. The geolocation button needs JavaScript.